User: anonymous
Location: Onan Observatory
(44.8103°N, 93.9397°W)
Time: 06:51:23
(UTC-05:00)
Language:

Iridium 90 - Orbit

View from above orbital plane
View from above orbital plane
View from above satellite
View from above satellite

Ground track
Ground track

The orbit data is extracted from the following two-line orbital elements,

1 27373U 02005B   14212.48080806  .00000178  00000-0  47298-4 0  4202
2 27373 086.4442 069.6805 0000241 165.9643 194.1564 14.42948633659696
Epoch (UTC): 31 July 2014 11:32:21
Eccentricity: 0.0000241
inclination: 86.4442°
perigee height: 748 km
apogee height: 749 km
right ascension of ascending node: 69.6805°
argument of perigee: 165.9643°
revolutions per day: 14.42948633
mean anomaly at epoch: 194.1564°
orbit number at epoch: 65969

The dashed part of the orbit path shows where the satellite is in the earth's shadow,  

DLR